Private Wetterstation Wechselburg
Wetterdaten: Samstag, 28.09.2013
Datum Zeit Temp. +2m Bodentemp. Temp.+5cm Temp. Wind Windchill X Diff Temp. Feuchte +2m Feuchte +5cm Sonnenschein Luftdruck Regen Wind Richtung Richtung Sonnenschein UV Taupunkt Windchill Windben
28.09.2013 00:00 2,4 C 19,8 C 4,3 C 2,2 C 1,9 C 0,0 C 87 % 85 % 0 % 1017,1 hPa 0,0 l/m 0,0 km/h (0 Bft) SW 225 0 min 0,0 UV-I 0,5 C 1,9 C 0,0 km/h (0 Bft)
28.09.2013 00:05 2,4 C 19,8 C 4,3 C 2,2 C 1,9 C 0,0 C 87 % 85 % 0 % 1017,1 hPa 0,0 l/m 0,0 km/h (0 Bft) W-SW 247 0 min 0,0 UV-I 0,5 C 1,9 C 0,0 km/h (0 Bft)
28.09.2013 00:10 2,4 C 19,8 C 4,3 C 2,3 C 2,1 C 0,0 C 87 % 85 % 0 % 1017,2 hPa 0,0 l/m 0,0 km/h (0 Bft) O 90 0 min 0,0 UV-I 0,5 C 2,1 C 0,0 km/h (0 Bft)
28.09.2013 00:15 2,4 C 19,8 C 4,3 C 2,3 C 2,2 C 0,0 C 87 % 85 % 0 % 1017,2 hPa 0,0 l/m 0,0 km/h (0 Bft) O 90 0 min 0,0 UV-I 0,5 C 2,2 C 0,0 km/h (0 Bft)
28.09.2013 00:20 2,4 C 19,8 C 4,2 C 2,3 C 2,0 C 0,0 C 88 % 85 % 0 % 1017,2 hPa 0,0 l/m 0,0 km/h (0 Bft) W-SW 247 0 min 0,0 UV-I 0,6 C 2,0 C 0,0 km/h (0 Bft)
28.09.2013 00:25 2,4 C 19,8 C 4,3 C 2,3 C 2,0 C 0,0 C 87 % 85 % 0 % 1017,2 hPa 0,0 l/m 0,0 km/h (0 Bft) W-SW 247 0 min 0,0 UV-I 0,5 C 2,0 C 0,0 km/h (0 Bft)
28.09.2013 00:30 2,3 C 19,7 C 4,1 C 2,2 C 1,9 C 0,0 C 87 % 85 % 0 % 1017,1 hPa 0,0 l/m 0,0 km/h (0 Bft) SW 225 0 min 0,0 UV-I 0,4 C 1,9 C 0,0 km/h (0 Bft)
28.09.2013 00:35 2,3 C 19,7 C 4,0 C 2,2 C 1,9 C 0,0 C 87 % 85 % 0 % 1017,1 hPa 0,0 l/m 0,0 km/h (0 Bft) NW 315 0 min 0,0 UV-I 0,4 C 1,9 C 0,0 km/h (0 Bft)
28.09.2013 00:41 2,1 C 19,7 C 4,0 C 2,0 C 1,8 C 0,0 C 87 % 85 % 0 % 1017,1 hPa 0,0 l/m 0,0 km/h (0 Bft) N 0 0 min 0,0 UV-I 0,2 C 1,8 C 0,0 km/h (0 Bft)
28.09.2013 00:58 1,9 C 19,7 C 3,8 C 1,8 C 1,6 C 0,0 C 88 % 85 % 0 % 1017,0 hPa 0,0 l/m 0,0 km/h (0 Bft) N-NO 22 0 min 0,0 UV-I 0,1 C 1,6 C 0,0 km/h (0 Bft)
28.09.2013 01:05 1,9 C 19,7 C 3,9 C 1,8 C 1,6 C 0,0 C 88 % 85 % 0 % 1017,0 hPa 0,0 l/m 0,0 km/h (0 Bft) N 360 0 min 0,0 UV-I 0,1 C 1,6 C 0,0 km/h (0 Bft)
28.09.2013 01:10 1,8 C 19,7 C 3,8 C 1,7 C 1,4 C 0,0 C 88 % 85 % 0 % 1016,8 hPa 0,0 l/m 0,0 km/h (0 Bft) O-NO 67 0 min 0,0 UV-I 0,0 C 1,4 C 0,0 km/h (0 Bft)
28.09.2013 01:15 1,9 C 19,6 C 3,8 C 1,7 C 1,4 C 0,0 C 88 % 85 % 0 % 1016,8 hPa 0,0 l/m 0,0 km/h (0 Bft) O-NO 67 0 min 0,0 UV-I 0,1 C 1,4 C 0,0 km/h (0 Bft)
28.09.2013 01:20 1,8 C 19,7 C 3,6 C 1,7 C 1,4 C 0,0 C 88 % 85 % 0 % 1016,8 hPa 0,0 l/m 0,0 km/h (0 Bft) N-NW 337 0 min 0,0 UV-I 0,0 C 1,4 C 0,0 km/h (0 Bft)
28.09.2013 01:25 1,7 C 19,7 C 3,6 C 1,6 C 1,4 C 0,0 C 88 % 85 % 0 % 1016,8 hPa 0,0 l/m 0,0 km/h (0 Bft) O-NO 67 0 min 0,0 UV-I -0,1 C 1,4 C 0,0 km/h (0 Bft)
28.09.2013 01:30 1,7 C 19,6 C 3,7 C 1,6 C 1,4 C 0,0 C 88 % 85 % 0 % 1016,9 hPa 0,0 l/m 0,0 km/h (0 Bft) O-NO 67 0 min 0,0 UV-I -0,1 C 1,4 C 0,0 km/h (0 Bft)
28.09.2013 01:35 1,7 C 19,7 C 3,6 C 1,6 C 1,5 C 0,0 C 88 % 85 % 0 % 1016,9 hPa 0,0 l/m 0,0 km/h (0 Bft) O-NO 67 0 min 0,0 UV-I -0,1 C 1,5 C 0,0 km/h (0 Bft)
28.09.2013 01:40 1,8 C 19,7 C 3,6 C 1,7 C 1,6 C 0,0 C 88 % 85 % 0 % 1016,9 hPa 0,0 l/m 0,0 km/h (0 Bft) O-SO 112 0 min 0,0 UV-I 0,0 C 1,6 C 0,0 km/h (0 Bft)
28.09.2013 01:45 1,7 C 19,7 C 3,5 C 1,6 C 1,5 C 0,0 C 88 % 85 % 0 % 1016,9 hPa 0,0 l/m 0,0 km/h (0 Bft) N-NO 22 0 min 0,0 UV-I -0,1 C 1,5 C 0,0 km/h (0 Bft)
28.09.2013 01:50 1,7 C 19,7 C 3,5 C 1,6 C 1,5 C 0,0 C 88 % 85 % 0 % 1016,6 hPa 0,0 l/m 0,0 km/h (0 Bft) SW 225 0 min 0,0 UV-I -0,1 C 1,5 C 0,0 km/h (0 Bft)
28.09.2013 01:55 1,7 C 19,7 C 3,5 C 1,6 C 1,4 C 0,0 C 88 % 85 % 0 % 1016,6 hPa 0,0 l/m 0,0 km/h (0 Bft) S-SW 202 0 min 0,0 UV-I -0,1 C 1,4 C 0,0 km/h (0 Bft)
28.09.2013 02:00 1,6 C 19,6 C 3,5 C 1,5 C 1,3 C 0,0 C 88 % 85 % 0 % 1016,6 hPa 0,0 l/m 0,0 km/h (0 Bft) W 270 0 min 0,0 UV-I -0,2 C 1,3 C 0,0 km/h (0 Bft)
28.09.2013 02:05 1,6 C 19,6 C 3,3 C 1,4 C 1,1 C 0,0 C 88 % 85 % 0 % 1016,6 hPa 0,0 l/m 0,0 km/h (0 Bft) W 270 0 min 0,0 UV-I -0,2 C 1,1 C 0,0 km/h (0 Bft)
28.09.2013 02:10 1,5 C 19,6 C 3,3 C 1,3 C 0,9 C 0,0 C 88 % 85 % 0 % 1017,5 hPa 0,0 l/m 0,0 km/h (0 Bft) W 270 0 min 0,0 UV-I -0,3 C 0,9 C 0,0 km/h (0 Bft)
28.09.2013 02:15 1,5 C 19,6 C 3,2 C 1,3 C 0,8 C 0,0 C 88 % 85 % 0 % 1017,5 hPa 0,0 l/m 0,0 km/h (0 Bft) SW 225 0 min 0,0 UV-I -0,3 C 0,8 C 0,0 km/h (0 Bft)
28.09.2013 02:20 1,3 C 19,6 C 3,2 C 1,1 C 0,7 C 0,0 C 88 % 85 % 0 % 1017,5 hPa 0,0 l/m 0,0 km/h (0 Bft) W-SW 247 0 min 0,0 UV-I -0,5 C 0,7 C 0,0 km/h (0 Bft)
28.09.2013 02:25 1,3 C 19,6 C 3,3 C 1,1 C 0,6 C 0,0 C 88 % 85 % 0 % 1017,5 hPa 0,0 l/m 0,0 km/h (0 Bft) SW 225 0 min 0,0 UV-I -0,5 C 0,6 C 0,0 km/h (0 Bft)
28.09.2013 02:30 1,1 C 19,6 C 3,1 C 1,0 C 0,7 C 0,0 C 88 % 85 % 0 % 1017,4 hPa 0,0 l/m 0,0 km/h (0 Bft) NW 315 0 min 0,0 UV-I -0,7 C 0,7 C 0,0 km/h (0 Bft)
28.09.2013 02:35 1,1 C 19,6 C 2,9 C 1,0 C 0,7 C 0,0 C 88 % 85 % 0 % 1017,4 hPa 0,0 l/m 0,0 km/h (0 Bft) N-NW 337 0 min 0,0 UV-I -0,7 C 0,7 C 0,0 km/h (0 Bft)
28.09.2013 02:40 1,0 C 19,5 C 3,1 C 0,9 C 0,8 C 0,0 C 88 % 85 % 0 % 1017,4 hPa 0,0 l/m 0,0 km/h (0 Bft) S-SW 202 0 min 0,0 UV-I -0,8 C 0,8 C 0,0 km/h (0 Bft)
28.09.2013 02:45 1,1 C 19,6 C 3,1 C 1,0 C 0,7 C 0,0 C 88 % 85 % 0 % 1017,4 hPa 0,0 l/m 0,0 km/h (0 Bft) W 270 0 min 0,0 UV-I -0,7 C 0,7 C 0,0 km/h (0 Bft)
28.09.2013 02:50 1,0 C 19,6 C 3,0 C 0,9 C 0,7 C 0,0 C 89 % 85 % 0 % 1017,2 hPa 0,0 l/m 0,0 km/h (0 Bft) O-NO 67 0 min 0,0 UV-I -0,6 C 0,7 C 0,0 km/h (0 Bft)
28.09.2013 02:55 1,1 C 19,5 C 3,0 C 1,0 C 0,9 C 0,0 C 89 % 85 % 0 % 1017,2 hPa 0,0 l/m 0,0 km/h (0 Bft) O-SO 112 0 min 0,0 UV-I -0,5 C 0,9 C 0,0 km/h (0 Bft)
28.09.2013 03:00 1,1 C 19,5 C 3,1 C 1,0 C 0,8 C 0,0 C 89 % 85 % 0 % 1017,2 hPa 0,0 l/m 0,0 km/h (0 Bft) SW 225 0 min 0,0 UV-I -0,5 C 0,8 C 0,0 km/h (0 Bft)
28.09.2013 03:05 1,1 C 19,5 C 3,1 C 1,0 C 0,7 C 0,0 C 89 % 85 % 0 % 1017,2 hPa 0,0 l/m 0,0 km/h (0 Bft) O-NO 67 0 min 0,0 UV-I -0,5 C 0,7 C 0,0 km/h (0 Bft)
28.09.2013 03:10 1,1 C 19,5 C 2,8 C 1,0 C 0,8 C 0,0 C 89 % 85 % 0 % 1016,5 hPa 0,0 l/m 0,0 km/h (0 Bft) NW 315 0 min 0,0 UV-I -0,5 C 0,8 C 0,0 km/h (0 Bft)
28.09.2013 03:15 1,1 C 19,5 C 2,8 C 1,0 C 0,8 C 0,0 C 89 % 85 % 0 % 1016,5 hPa 0,0 l/m 0,0 km/h (0 Bft) O-NO 67 0 min 0,0 UV-I -0,5 C 0,8 C 0,0 km/h (0 Bft)
28.09.2013 03:20 0,9 C 19,5 C 2,8 C 0,8 C 0,7 C 0,0 C 89 % 85 % 0 % 1016,5 hPa 0,0 l/m 0,0 km/h (0 Bft) O-SO 112 0 min 0,0 UV-I -0,7 C 0,7 C 0,0 km/h (0 Bft)
28.09.2013 03:25 0,9 C 19,5 C 2,9 C 0,8 C 0,7 C 0,0 C 89 % 85 % 0 % 1016,5 hPa 0,0 l/m 0,0 km/h (0 Bft) W-SW 247 0 min 0,0 UV-I -0,7 C 0,7 C 0,0 km/h (0 Bft)
28.09.2013 03:30 0,9 C 19,5 C 2,9 C 0,8 C 0,6 C 0,0 C 89 % 85 % 0 % 1016,4 hPa 0,0 l/m 0,0 km/h (0 Bft) S 180 0 min 0,0 UV-I -0,7 C 0,6 C 0,0 km/h (0 Bft)
28.09.2013 03:35 0,8 C 19,4 C 2,8 C 0,7 C 0,5 C 0,0 C 89 % 85 % 0 % 1016,4 hPa 0,0 l/m 0,0 km/h (0 Bft) S 180 0 min 0,0 UV-I -0,8 C 0,5 C 0,0 km/h (0 Bft)
28.09.2013 03:40 0,9 C 19,4 C 2,7 C 0,7 C 0,4 C 0,0 C 89 % 85 % 0 % 1016,4 hPa 0,0 l/m 0,0 km/h (0 Bft) O 90 0 min 0,0 UV-I -0,7 C 0,4 C 0,0 km/h (0 Bft)
28.09.2013 03:45 0,8 C 19,4 C 2,7 C 0,7 C 0,5 C 0,0 C 89 % 85 % 0 % 1016,4 hPa 0,0 l/m 0,0 km/h (0 Bft) O-NO 67 0 min 0,0 UV-I -0,8 C 0,5 C 0,0 km/h (0 Bft)
28.09.2013 03:50 0,8 C 19,4 C 2,8 C 0,8 C 0,7 C 0,0 C 89 % 85 % 0 % 1016,2 hPa 0,0 l/m 0,0 km/h (0 Bft) O-SO 112 0 min 0,0 UV-I -0,8 C 0,7 C 0,0 km/h (0 Bft)
28.09.2013 03:55 0,9 C 19,4 C 2,7 C 0,8 C 0,7 C 0,0 C 89 % 85 % 0 % 1016,2 hPa 0,0 l/m 0,0 km/h (0 Bft) N 360 0 min 0,0 UV-I -0,7 C 0,7 C 0,0 km/h (0 Bft)
28.09.2013 04:00 0,8 C 19,4 C 2,6 C 0,7 C 0,6 C 0,0 C 89 % 85 % 0 % 1016,2 hPa 0,0 l/m 0,0 km/h (0 Bft) NW 315 0 min 0,0 UV-I -0,8 C 0,6 C 0,0 km/h (0 Bft)
28.09.2013 04:05 0,8 C 19,4 C 2,7 C 0,7 C 0,4 C 0,0 C 89 % 85 % 0 % 1016,2 hPa 0,0 l/m 0,0 km/h (0 Bft) NW 315 0 min 0,0 UV-I -0,8 C 0,4 C 0,0 km/h (0 Bft)
28.09.2013 04:10 0,7 C 19,3 C 2,7 C 0,5 C 0,2 C 0,0 C 89 % 85 % 0 % 1016,4 hPa 0,0 l/m 0,0 km/h (0 Bft) W-SW 247 0 min 0,0 UV-I -0,9 C 0,2 C 0,0 km/h (0 Bft)
28.09.2013 04:15 0,7 C 19,3 C 2,5 C 0,5 C 0,1 C 0,0 C 89 % 85 % 0 % 1016,4 hPa 0,0 l/m 0,0 km/h (0 Bft) W-SW 247 0 min 0,0 UV-I -0,9 C 0,1 C 0,0 km/h (0 Bft)
28.09.2013 04:20 0,5 C 19,3 C 2,4 C 0,3 C -0,1 C 0,0 C 89 % 85 % 0 % 1016,4 hPa 0,0 l/m 0,0 km/h (0 Bft) W-SW 247 0 min 0,0 UV-I -1,1 C -0,1 C 0,0 km/h (0 Bft)
28.09.2013 04:25 0,5 C 19,3 C 2,3 C 0,3 C -0,2 C 0,0 C 89 % 85 % 0 % 1016,4 hPa 0,0 l/m 0,0 km/h (0 Bft) W-SW 247 0 min 0,0 UV-I -1,1 C -0,2 C 0,0 km/h (0 Bft)
28.09.2013 04:30 0,3 C 19,3 C 2,3 C 0,1 C -0,3 C 0,0 C 89 % 85 % 0 % 1016,2 hPa 0,0 l/m 0,0 km/h (0 Bft) W-SW 247 0 min 0,0 UV-I -1,3 C -0,3 C 0,0 km/h (0 Bft)
28.09.2013 04:35 0,2 C 19,3 C 2,3 C 0,0 C -0,4 C 0,0 C 89 % 85 % 0 % 1016,2 hPa 0,0 l/m 0,0 km/h (0 Bft) W-SW 247 0 min 0,0 UV-I -1,4 C -0,4 C 0,0 km/h (0 Bft)
28.09.2013 04:40 0,1 C 19,2 C 2,3 C -0,1 C -0,5 C 0,0 C 89 % 85 % 0 % 1016,2 hPa 0,0 l/m 0,0 km/h (0 Bft) W-SW 247 0 min 0,0 UV-I -1,5 C -0,5 C 0,0 km/h (0 Bft)
28.09.2013 04:45 0,1 C 19,2 C 2,3 C -0,1 C -0,5 C 0,0 C 89 % 85 % 0 % 1016,2 hPa 0,0 l/m 0,0 km/h (0 Bft) W-SW 247 0 min 0,0 UV-I -1,5 C -0,5 C 0,0 km/h (0 Bft)
28.09.2013 04:50 -0,1 C 19,2 C 2,1 C -0,2 C -0,5 C 0,0 C 89 % 85 % 0 % 1016,2 hPa 0,0 l/m 0,0 km/h (0 Bft) W 270 0 min 0,0 UV-I -1,7 C -0,5 C 0,0 km/h (0 Bft)
28.09.2013 04:55 -0,1 C 19,2 C 2,1 C -0,2 C -0,5 C 0,0 C 89 % 85 % 0 % 1016,2 hPa 0,0 l/m 0,0 km/h (0 Bft) O-SO 112 0 min 0,0 UV-I -1,7 C -0,5 C 0,0 km/h (0 Bft)
28.09.2013 05:00 -0,1 C 19,2 C 2,0 C -0,2 C -0,4 C 0,0 C 89 % 85 % 0 % 1016,2 hPa 0,0 l/m 0,0 km/h (0 Bft) S-SW 202 0 min 0,0 UV-I -1,7 C -0,4 C 0,0 km/h (0 Bft)
28.09.2013 05:05 -0,1 C 19,2 C 2,0 C -0,2 C -0,3 C 0,0 C 89 % 85 % 0 % 1016,2 hPa 0,0 l/m 0,0 km/h (0 Bft) NO 45 0 min 0,0 UV-I -1,7 C -0,3 C 0,0 km/h (0 Bft)
28.09.2013 05:10 -0,1 C 19,2 C 2,0 C -0,1 C -0,2 C 0,0 C 89 % 86 % 0 % 1016,2 hPa 0,0 l/m 0,0 km/h (0 Bft) N-NW 337 0 min 0,0 UV-I -1,7 C -0,2 C 0,0 km/h (0 Bft)
28.09.2013 05:15 -0,1 C 19,2 C 2,0 C -0,1 C -0,2 C 0,0 C 89 % 86 % 0 % 1016,2 hPa 0,0 l/m 0,0 km/h (0 Bft) W-NW 292 0 min 0,0 UV-I -1,7 C -0,2 C 0,0 km/h (0 Bft)
28.09.2013 05:20 -0,1 C 19,2 C 2,1 C -0,2 C -0,3 C 0,0 C 89 % 86 % 0 % 1016,2 hPa 0,0 l/m 0,0 km/h (0 Bft) W-SW 247 0 min 0,0 UV-I -1,7 C -0,3 C 0,0 km/h (0 Bft)
28.09.2013 05:25 -0,1 C 19,2 C 2,1 C -0,2 C -0,3 C 0,0 C 89 % 86 % 0 % 1016,2 hPa 0,0 l/m 0,0 km/h (0 Bft) W-SW 247 0 min 0,0 UV-I -1,7 C -0,3 C 0,0 km/h (0 Bft)
28.09.2013 05:30 -0,1 C 19,2 C 2,1 C -0,1 C -0,2 C 0,0 C 89 % 86 % 0 % 1016,2 hPa 0,0 l/m 0,0 km/h (0 Bft) NW 315 0 min 0,0 UV-I -1,7 C -0,2 C 0,0 km/h (0 Bft)
28.09.2013 05:35 -0,1 C 19,1 C 2,1 C -0,2 C -0,3 C 0,0 C 89 % 86 % 0 % 1016,2 hPa 0,0 l/m 0,0 km/h (0 Bft) W-SW 247 0 min 0,0 UV-I -1,7 C -0,3 C 0,0 km/h (0 Bft)
28.09.2013 05:40 -0,1 C 19,1 C 1,9 C -0,2 C -0,4 C 0,0 C 89 % 86 % 0 % 1016,2 hPa 0,0 l/m 0,0 km/h (0 Bft) SW 225 0 min 0,0 UV-I -1,7 C -0,4 C 0,0 km/h (0 Bft)
28.09.2013 05:45 -0,1 C 19,1 C 1,9 C -0,2 C -0,5 C 0,0 C 89 % 86 % 0 % 1016,2 hPa 0,0 l/m 0,0 km/h (0 Bft) W-SW 247 0 min 0,0 UV-I -1,7 C -0,5 C 0,0 km/h (0 Bft)
28.09.2013 05:50 -0,3 C 19,1 C 1,9 C -0,4 C -0,7 C 0,0 C 89 % 86 % 0 % 1016,2 hPa 0,0 l/m 0,0 km/h (0 Bft) W-SW 247 0 min 0,0 UV-I -1,9 C -0,7 C 0,0 km/h (0 Bft)
28.09.2013 05:55 -0,3 C 19,1 C 1,9 C -0,4 C -0,6 C 0,0 C 89 % 86 % 0 % 1016,2 hPa 0,0 l/m 0,0 km/h (0 Bft) NW 315 0 min 0,0 UV-I -1,9 C -0,6 C 0,0 km/h (0 Bft)
28.09.2013 06:00 -0,4 C 19,1 C 1,9 C -0,5 C -0,7 C 0,0 C 89 % 86 % 0 % 1016,2 hPa 0,0 l/m 0,0 km/h (0 Bft) W-SW 247 0 min 0,0 UV-I -2,0 C -0,7 C 0,0 km/h (0 Bft)
28.09.2013 06:05 -0,5 C 19,0 C 1,9 C -0,6 C -0,7 C 0,0 C 89 % 86 % 0 % 1016,2 hPa 0,0 l/m 0,0 km/h (0 Bft) W 270 0 min 0,0 UV-I -2,1 C -0,7 C 0,0 km/h (0 Bft)
28.09.2013 06:10 -0,5 C 19,0 C 1,8 C -0,6 C -0,7 C 0,0 C 89 % 86 % 0 % 1016,1 hPa 0,0 l/m 0,0 km/h (0 Bft) W 270 0 min 0,0 UV-I -2,1 C -0,7 C 0,0 km/h (0 Bft)
28.09.2013 06:15 -0,5 C 19,0 C 1,7 C -0,6 C -0,7 C 0,0 C 89 % 86 % 0 % 1016,1 hPa 0,0 l/m 0,0 km/h (0 Bft) W 270 0 min 0,0 UV-I -2,1 C -0,7 C 0,0 km/h (0 Bft)
28.09.2013 06:20 -0,5 C 19,0 C 1,7 C -0,6 C -0,8 C 0,0 C 89 % 86 % 0 % 1016,1 hPa 0,0 l/m 0,0 km/h (0 Bft) W 270 0 min 0,0 UV-I -2,1 C -0,8 C 0,0 km/h (0 Bft)
28.09.2013 06:25 -0,5 C 19,0 C 1,7 C -0,6 C -0,8 C 0,0 C 89 % 86 % 0 % 1016,1 hPa 0,0 l/m 0,0 km/h (0 Bft) W 270 0 min 0,0 UV-I -2,1 C -0,8 C 0,0 km/h (0 Bft)
28.09.2013 06:30 -0,5 C 19,0 C 1,7 C -0,5 C -0,6 C 0,0 C 89 % 86 % 0 % 1016,0 hPa 0,0 l/m 0,0 km/h (0 Bft) NO 45 0 min 0,0 UV-I -2,1 C -0,6 C 0,0 km/h (0 Bft)
28.09.2013 06:35 -0,5 C 19,0 C 1,7 C -0,5 C -0,6 C 0,0 C 89 % 86 % 0 % 1016,0 hPa 0,0 l/m 0,0 km/h (0 Bft) W-NW 292 0 min 0,0 UV-I -2,1 C -0,6 C 0,0 km/h (0 Bft)
28.09.2013 06:41 -0,5 C 19,0 C 1,7 C -0,5 C -0,6 C 0,0 C 89 % 86 % 0 % 1016,0 hPa 0,0 l/m 0,0 km/h (0 Bft) N 0 0 min 0,0 UV-I -2,1 C -0,6 C 0,0 km/h (0 Bft)
28.09.2013 06:58 -0,5 C 18,9 C 1,6 C -0,6 C -0,7 C 0,0 C 89 % 86 % 0 % 1016,0 hPa 0,0 l/m 0,0 km/h (0 Bft) O-NO 67 0 min 0,0 UV-I -2,1 C -0,7 C 0,0 km/h (0 Bft)
28.09.2013 07:00 -0,5 C 18,9 C 1,6 C -0,6 C -0,7 C 0,0 C 89 % 86 % 0 % 1016,0 hPa 0,0 l/m 0,0 km/h (0 Bft) O-NO 67 0 min 0,0 UV-I -2,1 C -0,7 C 0,0 km/h (0 Bft)
28.09.2013 07:05 -0,5 C 18,9 C 1,7 C -0,5 C -0,5 C 0,0 C 90 % 86 % 0 % 1016,0 hPa 0,0 l/m 0,0 km/h (0 Bft) O-NO 67 0 min 0,0 UV-I -1,9 C -0,5 C 0,0 km/h (0 Bft)
28.09.2013 07:10 -0,3 C 18,9 C 1,7 C -0,3 C -0,4 C 0,0 C 90 % 86 % 0 % 1016,0 hPa 0,0 l/m 0,0 km/h (0 Bft) W-SW 247 0 min 0,0 UV-I -1,7 C -0,4 C 0,0 km/h (0 Bft)
28.09.2013 07:15 -0,5 C 18,9 C 1,6 C -0,5 C -0,5 C 0,0 C 90 % 86 % 0 % 1016,0 hPa 0,0 l/m 0,0 km/h (0 Bft) W-SW 247 0 min 0,0 UV-I -1,9 C -0,5 C 0,0 km/h (0 Bft)
28.09.2013 07:20 -0,5 C 18,9 C 1,6 C -0,5 C -0,6 C 0,0 C 90 % 86 % 0 % 1016,0 hPa 0,0 l/m 0,0 km/h (0 Bft) W-SW 247 0 min 0,0 UV-I -1,9 C -0,6 C 0,0 km/h (0 Bft)
28.09.2013 07:25 -0,5 C 18,9 C 1,6 C -0,6 C -0,7 C 0,0 C 90 % 86 % 0 % 1016,0 hPa 0,0 l/m 0,0 km/h (0 Bft) W-SW 247 0 min 0,0 UV-I -1,9 C -0,7 C 0,0 km/h (0 Bft)
28.09.2013 07:30 -0,5 C 18,9 C 1,6 C -0,4 C -0,4 C 0,1 C 90 % 86 % 3 % 1016,1 hPa 0,0 l/m 0,0 km/h (0 Bft) W-SW 247 0 min 0,0 UV-I -1,9 C -0,4 C 0,0 km/h (0 Bft)
28.09.2013 07:35 -0,5 C 18,8 C 1,6 C 0,6 C 0,6 C 1,1 C 90 % 86 % 29 % 1016,1 hPa 0,0 l/m 0,0 km/h (0 Bft) W 270 5 min 0,0 UV-I -1,9 C 0,6 C 0,0 km/h (0 Bft)
28.09.2013 07:40 -0,5 C 18,8 C 1,9 C 2,0 C 2,0 C 2,5 C 90 % 86 % 66 % 1016,1 hPa 0,0 l/m 0,0 km/h (0 Bft) W-SW 247 5 min 0,0 UV-I -1,9 C 2,0 C 0,0 km/h (0 Bft)
28.09.2013 07:45 -0,5 C 18,8 C 1,9 C 3,1 C 3,1 C 3,6 C 90 % 86 % 95 % 1016,1 hPa 0,0 l/m 0,0 km/h (0 Bft) W-SW 247 5 min 0,0 UV-I -1,9 C 3,1 C 0,0 km/h (0 Bft)
28.09.2013 07:50 -0,1 C 18,8 C 1,9 C 4,3 C 4,3 C 4,4 C 90 % 86 % 100 % 1016,4 hPa 0,0 l/m 0,0 km/h (0 Bft) W-SW 247 5 min 0,0 UV-I -1,5 C 4,3 C 0,0 km/h (0 Bft)
28.09.2013 07:55 -0,1 C 18,8 C 2,1 C 5,2 C 5,2 C 5,3 C 91 % 86 % 100 % 1016,4 hPa 0,0 l/m 0,0 km/h (0 Bft) W-SW 247 5 min 0,0 UV-I -1,4 C 5,2 C 0,0 km/h (0 Bft)
28.09.2013 08:00 0,3 C 18,8 C 2,1 C 6,2 C 6,2 C 5,9 C 91 % 86 % 100 % 1016,4 hPa 0,0 l/m 0,0 km/h (0 Bft) W-SW 247 5 min 0,0 UV-I -1,0 C 6,2 C 0,0 km/h (0 Bft)
28.09.2013 08:05 0,4 C 18,8 C 2,1 C 6,7 C 6,7 C 6,3 C 91 % 86 % 100 % 1016,4 hPa 0,0 l/m 0,0 km/h (0 Bft) W-SW 247 5 min 0,0 UV-I -0,9 C 6,7 C 0,0 km/h (0 Bft)
28.09.2013 08:10 0,5 C 18,8 C 2,1 C 7,3 C 7,3 C 6,8 C 91 % 86 % 100 % 1016,2 hPa 0,0 l/m 0,0 km/h (0 Bft) W 270 5 min 0,0 UV-I -0,8 C 7,3 C 0,0 km/h (0 Bft)
28.09.2013 08:15 0,6 C 18,8 C 2,1 C 6,7 C 6,7 C 6,1 C 91 % 86 % 100 % 1016,2 hPa 0,0 l/m 0,0 km/h (0 Bft) W 270 5 min 0,0 UV-I -0,7 C 6,7 C 0,0 km/h (0 Bft)
28.09.2013 08:20 1,1 C 18,8 C 2,3 C 5,0 C 5,0 C 3,9 C 91 % 86 % 100 % 1016,2 hPa 0,0 l/m 0,0 km/h (0 Bft) W 270 5 min 0,0 UV-I -0,2 C 5,0 C 0,0 km/h (0 Bft)
28.09.2013 08:25 1,1 C 18,8 C 2,5 C 4,1 C 4,1 C 3,0 C 91 % 86 % 79 % 1016,2 hPa 0,0 l/m 0,0 km/h (0 Bft) NW 315 5 min 0,0 UV-I -0,2 C 4,1 C 0,0 km/h (0 Bft)
28.09.2013 08:30 1,3 C 18,8 C 2,7 C 3,3 C 3,3 C 2,0 C 91 % 86 % 53 % 1016,3 hPa 0,0 l/m 0,0 km/h (0 Bft) NW 315 0 min 0,0 UV-I -0,0 C 3,3 C 0,0 km/h (0 Bft)
28.09.2013 08:35 1,3 C 18,8 C 2,8 C 3,0 C 3,0 C 1,7 C 91 % 86 % 45 % 1016,3 hPa 0,0 l/m 0,0 km/h (0 Bft) NW 315 0 min 0,0 UV-I -0,0 C 3,0 C 0,0 km/h (0 Bft)
28.09.2013 08:40 1,4 C 18,8 C 3,2 C 3,1 C 3,1 C 1,7 C 91 % 86 % 45 % 1016,3 hPa 0,0 l/m 0,0 km/h (0 Bft) NW 315 0 min 0,0 UV-I 0,1 C 3,1 C 0,0 km/h (0 Bft)
28.09.2013 08:45 1,6 C 18,8 C 3,2 C 3,2 C 3,2 C 1,6 C 91 % 86 % 42 % 1016,3 hPa 0,0 l/m 0,0 km/h (0 Bft) W-SW 247 0 min 0,0 UV-I 0,3 C 3,2 C 0,0 km/h (0 Bft)
28.09.2013 08:50 1,6 C 18,7 C 3,5 C 3,3 C 3,3 C 1,7 C 91 % 86 % 45 % 1016,4 hPa 0,0 l/m 0,0 km/h (0 Bft) SW 225 0 min 0,0 UV-I 0,3 C 3,3 C 0,0 km/h (0 Bft)
28.09.2013 08:55 1,7 C 18,7 C 3,4 C 3,3 C 3,3 C 1,6 C 91 % 86 % 42 % 1016,4 hPa 0,0 l/m 0,0 km/h (0 Bft) SW 225 0 min 0,0 UV-I 0,4 C 3,3 C 0,0 km/h (0 Bft)
28.09.2013 09:00 1,7 C 18,7 C 3,6 C 3,4 C 3,4 C 1,7 C 91 % 86 % 45 % 1016,4 hPa 0,0 l/m 0,0 km/h (0 Bft) SW 225 0 min 0,0 UV-I 0,4 C 3,4 C 0,0 km/h (0 Bft)
28.09.2013 09:05 1,8 C 18,7 C 3,8 C 3,5 C 3,5 C 1,7 C 91 % 86 % 45 % 1016,4 hPa 0,0 l/m 0,0 km/h (0 Bft) SW 225 0 min 0,0 UV-I 0,5 C 3,5 C 0,0 km/h (0 Bft)
28.09.2013 09:10 2,0 C 18,7 C 4,0 C 4,0 C 4,0 C 2,0 C 91 % 86 % 53 % 1016,6 hPa 0,0 l/m 0,0 km/h (0 Bft) W-SW 247 0 min 0,0 UV-I 0,7 C 4,0 C 0,0 km/h (0 Bft)
28.09.2013 09:15 2,0 C 18,7 C 4,0 C 4,4 C 4,4 C 2,4 C 91 % 86 % 63 % 1016,6 hPa 0,0 l/m 0,0 km/h (0 Bft) W-SW 247 0 min 0,0 UV-I 0,7 C 4,4 C 0,0 km/h (0 Bft)
28.09.2013 09:20 2,3 C 18,7 C 4,3 C 4,5 C 4,5 C 2,2 C 91 % 86 % 58 % 1016,6 hPa 0,0 l/m 0,0 km/h (0 Bft) NW 315 0 min 0,0 UV-I 1,0 C 4,5 C 0,0 km/h (0 Bft)
28.09.2013 09:25 2,4 C 18,7 C 4,5 C 4,6 C 4,6 C 2,2 C 91 % 86 % 58 % 1016,6 hPa 0,0 l/m 0,0 km/h (0 Bft) NW 315 0 min 0,0 UV-I 1,1 C 4,6 C 0,0 km/h (0 Bft)
28.09.2013 09:30 2,6 C 18,7 C 4,8 C 5,2 C 5,2 C 2,6 C 91 % 86 % 68 % 1016,5 hPa 0,0 l/m 0,0 km/h (0 Bft) W-SW 247 0 min 0,0 UV-I 1,3 C 5,2 C 0,0 km/h (0 Bft)
28.09.2013 09:35 2,9 C 18,5 C 5,0 C 5,4 C 5,4 C 2,5 C 91 % 86 % 66 % 1016,5 hPa 0,0 l/m 0,0 km/h (0 Bft) S-SW 202 0 min 0,0 UV-I 1,6 C 5,4 C 0,0 km/h (0 Bft)
28.09.2013 09:40 3,2 C 18,5 C 5,2 C 5,6 C 5,6 C 2,4 C 92 % 86 % 63 % 1016,5 hPa 0,0 l/m 0,0 km/h (0 Bft) O-NO 67 0 min 0,0 UV-I 2,0 C 5,6 C 0,0 km/h (0 Bft)
28.09.2013 09:45 3,5 C 18,5 C 5,4 C 5,7 C 5,7 C 2,2 C 92 % 86 % 58 % 1016,5 hPa 0,0 l/m 0,0 km/h (0 Bft) S-SW 202 0 min 0,0 UV-I 2,3 C 5,7 C 0,0 km/h (0 Bft)
28.09.2013 09:50 3,9 C 18,5 C 5,7 C 6,2 C 6,2 C 2,3 C 92 % 86 % 61 % 1016,4 hPa 0,0 l/m 0,0 km/h (0 Bft) SW 225 0 min 0,0 UV-I 2,7 C 6,2 C 0,0 km/h (0 Bft)
28.09.2013 09:55 4,0 C 18,5 C 5,8 C 6,3 C 6,3 C 2,3 C 92 % 86 % 61 % 1016,4 hPa 0,0 l/m 0,0 km/h (0 Bft) SW 225 0 min 0,0 UV-I 2,8 C 6,3 C 0,0 km/h (0 Bft)
28.09.2013 10:00 4,4 C 18,4 C 6,0 C 6,7 C 6,7 C 2,3 C 92 % 86 % 61 % 1016,4 hPa 0,0 l/m 0,6 km/h (0 Bft) SW 225 0 min 0,0 UV-I 3,2 C 6,7 C 0,0 km/h (0 Bft)
28.09.2013 10:05 4,7 C 18,5 C 6,3 C 7,2 C 7,2 C 2,5 C 92 % 86 % 66 % 1016,4 hPa 0,0 l/m 1,1 km/h (1 Bft) W-SW 247 0 min 0,0 UV-I 3,5 C 7,2 C 2,7 km/h (1 Bft)
28.09.2013 10:10 4,8 C 18,4 C 6,6 C 8,6 C 8,6 C 3,8 C 92 % 85 % 100 % 1016,6 hPa 0,0 l/m 1,3 km/h (1 Bft) S 180 5 min 0,0 UV-I 3,6 C 8,6 C 3,1 km/h (1 Bft)
28.09.2013 10:15 5,1 C 18,4 C 6,8 C 8,6 C 8,6 C 3,5 C 92 % 85 % 92 % 1016,6 hPa 0,0 l/m 1,3 km/h (1 Bft) S-SW 202 5 min 0,0 UV-I 3,9 C 8,6 C 2,3 km/h (1 Bft)
28.09.2013 10:20 5,3 C 18,4 C 7,1 C 8,6 C 8,6 C 3,3 C 92 % 85 % 87 % 1016,6 hPa 0,0 l/m 0,8 km/h (0 Bft) SW 225 5 min 0,0 UV-I 4,1 C 8,6 C 2,1 km/h (1 Bft)
28.09.2013 10:25 5,7 C 18,3 C 7,3 C 8,6 C 8,6 C 2,9 C 92 % 86 % 76 % 1016,6 hPa 0,0 l/m 1,0 km/h (0 Bft) W-SW 247 0 min 0,0 UV-I 4,5 C 8,6 C 3,1 km/h (1 Bft)
28.09.2013 10:30 6,1 C 18,3 C 7,6 C 9,0 C 9,0 C 2,9 C 92 % 85 % 76 % 1016,9 hPa 0,0 l/m 1,8 km/h (1 Bft) S 180 0 min 0,0 UV-I 4,9 C 9,0 C 3,2 km/h (1 Bft)
28.09.2013 10:35 6,3 C 18,3 C 7,7 C 9,3 C 9,3 C 3,0 C 92 % 85 % 79 % 1016,9 hPa 0,0 l/m 1,4 km/h (1 Bft) W 270 0 min 0,0 UV-I 5,1 C 9,3 C 2,7 km/h (1 Bft)
28.09.2013 10:40 6,5 C 18,3 C 7,9 C 9,9 C 9,9 C 3,4 C 92 % 85 % 89 % 1016,9 hPa 0,0 l/m 0,5 km/h (0 Bft) SW 225 5 min 0,0 UV-I 5,3 C 9,9 C 1,9 km/h (1 Bft)
28.09.2013 10:45 6,7 C 18,4 C 8,3 C 10,2 C 10,2 C 3,5 C 92 % 85 % 92 % 1016,9 hPa 0,0 l/m 0,3 km/h (0 Bft) S-SO 157 5 min 0,0 UV-I 5,5 C 10,2 C 0,0 km/h (0 Bft)
28.09.2013 10:50 7,1 C 18,3 C 8,6 C 10,3 C 10,3 C 3,2 C 93 % 85 % 84 % 1016,4 hPa 0,0 l/m 1,1 km/h (1 Bft) O-NO 67 0 min 0,0 UV-I 6,0 C 10,3 C 6,6 km/h (2 Bft)
28.09.2013 10:55 7,7 C 18,3 C 8,9 C 10,7 C 10,7 C 3,0 C 92 % 84 % 79 % 1016,4 hPa 0,0 l/m 2,4 km/h (1 Bft) O-NO 67 0 min 0,0 UV-I 6,5 C 10,7 C 6,9 km/h (2 Bft)
28.09.2013 11:00 8,9 C 18,3 C 9,6 C 11,2 C 11,2 C 2,3 C 87 % 84 % 61 % 1016,4 hPa 0,0 l/m 4,3 km/h (1 Bft) O 90 0 min 0,0 UV-I 6,9 C 11,2 C 5,6 km/h (1 Bft)
28.09.2013 11:05 9,7 C 18,3 C 9,8 C 11,5 C 11,5 C 1,8 C 83 % 83 % 47 % 1016,4 hPa 0,0 l/m 4,3 km/h (1 Bft) O-NO 67 0 min 0,0 UV-I 7,0 C 11,5 C 4,0 km/h (1 Bft)
28.09.2013 11:10 10,7 C 18,3 C 10,0 C 11,7 C 11,7 C 1,0 C 79 % 82 % 26 % 1016,9 hPa 0,0 l/m 4,3 km/h (1 Bft) O-NO 67 0 min 0,0 UV-I 7,2 C 11,7 C 7,7 km/h (2 Bft)
28.09.2013 11:15 10,9 C 18,3 C 10,2 C 11,9 C 11,9 C 1,0 C 77 % 82 % 26 % 1016,9 hPa 0,0 l/m 4,3 km/h (1 Bft) N-NO 22 0 min 0,0 UV-I 7,0 C 11,9 C 5,3 km/h (1 Bft)
28.09.2013 11:20 11,3 C 18,3 C 10,4 C 12,2 C 12,2 C 0,9 C 75 % 81 % 24 % 1016,9 hPa 0,0 l/m 4,5 km/h (1 Bft) O-NO 67 0 min 0,0 UV-I 7,0 C 12,2 C 7,9 km/h (2 Bft)
28.09.2013 11:25 11,6 C 18,3 C 10,6 C 12,4 C 12,4 C 0,8 C 74 % 81 % 21 % 1016,9 hPa 0,0 l/m 4,7 km/h (1 Bft) O-NO 67 0 min 0,0 UV-I 7,1 C 12,4 C 7,9 km/h (2 Bft)
28.09.2013 11:30 11,8 C 18,3 C 10,8 C 12,6 C 12,6 C 0,8 C 73 % 80 % 21 % 1016,2 hPa 0,0 l/m 4,7 km/h (1 Bft) O 90 0 min 0,0 UV-I 7,1 C 12,6 C 8,9 km/h (2 Bft)
28.09.2013 11:35 12,0 C 18,3 C 10,9 C 12,8 C 12,8 C 0,8 C 71 % 79 % 21 % 1016,2 hPa 0,0 l/m 4,5 km/h (1 Bft) O 90 0 min 0,0 UV-I 6,9 C 12,8 C 7,6 km/h (2 Bft)
28.09.2013 11:40 12,2 C 18,3 C 11,2 C 13,0 C 13,0 C 0,8 C 70 % 78 % 21 % 1016,2 hPa 0,0 l/m 4,2 km/h (1 Bft) O-SO 112 0 min 0,0 UV-I 6,9 C 13,0 C 9,0 km/h (2 Bft)
28.09.2013 11:45 12,4 C 18,3 C 11,2 C 13,2 C 13,2 C 0,8 C 69 % 78 % 21 % 1016,2 hPa 0,0 l/m 4,5 km/h (1 Bft) O-NO 67 0 min 0,0 UV-I 6,9 C 13,2 C 6,6 km/h (2 Bft)
28.09.2013 11:50 12,5 C 18,3 C 11,4 C 13,3 C 13,3 C 0,8 C 66 % 76 % 21 % 1015,6 hPa 0,0 l/m 5,8 km/h (2 Bft) O-SO 112 0 min 0,0 UV-I 6,3 C 13,3 C 11,1 km/h (2 Bft)
28.09.2013 11:55 12,6 C 18,3 C 11,5 C 13,1 C 13,1 C 0,5 C 66 % 75 % 13 % 1015,6 hPa 0,0 l/m 6,6 km/h (2 Bft) O-SO 112 0 min 0,0 UV-I 6,4 C 13,1 C 5,8 km/h (2 Bft)
28.09.2013 12:00 12,7 C 18,3 C 11,7 C 13,4 C 13,4 C 0,7 C 65 % 74 % 18 % 1015,6 hPa 0,0 l/m 5,0 km/h (1 Bft) O-NO 67 0 min 0,0 UV-I 6,3 C 13,4 C 5,1 km/h (1 Bft)
28.09.2013 12:05 12,8 C 18,2 C 11,9 C 13,6 C 13,6 C 0,8 C 62 % 73 % 21 % 1015,6 hPa 0,0 l/m 4,7 km/h (1 Bft) O-NO 67 0 min 0,0 UV-I 5,7 C 13,6 C 6,3 km/h (2 Bft)
28.09.2013 12:10 12,8 C 18,2 C 12,1 C 13,6 C 13,6 C 0,8 C 65 % 73 % 21 % 1015,9 hPa 0,0 l/m 3,9 km/h (1 Bft) O-SO 112 0 min 0,0 UV-I 6,4 C 13,6 C 0,0 km/h (0 Bft)
28.09.2013 12:15 12,9 C 18,3 C 12,4 C 13,8 C 13,8 C 0,9 C 65 % 74 % 24 % 1015,9 hPa 0,0 l/m 3,2 km/h (1 Bft) NO 45 0 min 0,0 UV-I 6,5 C 13,8 C 2,1 km/h (1 Bft)
28.09.2013 12:20 13,1 C 18,3 C 13,1 C 14,0 C 14,0 C 0,9 C 65 % 72 % 24 % 1015,9 hPa 0,0 l/m 2,3 km/h (1 Bft) W-NW 292 0 min 0,0 UV-I 6,7 C 14,0 C 0,0 km/h (0 Bft)
28.09.2013 12:25 13,2 C 18,3 C 13,2 C 14,1 C 14,1 C 0,9 C 65 % 72 % 24 % 1015,9 hPa 0,0 l/m 2,4 km/h (1 Bft) O-NO 67 0 min 0,0 UV-I 6,8 C 14,1 C 3,7 km/h (1 Bft)
28.09.2013 12:30 13,4 C 18,3 C 13,6 C 14,5 C 14,5 C 1,1 C 63 % 71 % 29 % 1015,9 hPa 0,0 l/m 3,2 km/h (1 Bft) O-NO 67 0 min 0,0 UV-I 6,5 C 14,5 C 5,8 km/h (2 Bft)
28.09.2013 12:35 13,7 C 18,3 C 14,0 C 15,8 C 15,8 C 2,1 C 63 % 68 % 55 % 1015,9 hPa 0,0 l/m 4,2 km/h (1 Bft) O-NO 67 0 min 0,0 UV-I 6,8 C 15,8 C 7,6 km/h (2 Bft)
28.09.2013 12:41 13,7 C 18,3 C 13,4 C 17,2 C 17,2 C 3,5 C 62 % 68 % 92 % 1015,9 hPa 0,0 l/m 4,2 km/h (1 Bft) N 0 6 min 0,0 UV-I 6,6 C 17,2 C 6,1 km/h (2 Bft)
28.09.2013 13:00 13,9 C 18,4 C 13,6 C 19,0 C 19,0 C 5,1 C 62 % 69 % 100 % 1015,9 hPa 0,0 l/m 3,7 km/h (1 Bft) O-NO 67 19 min 0,0 UV-I 6,7 C 19,0 C 2,1 km/h (1 Bft)
28.09.2013 13:05 13,9 C 18,4 C 13,5 C 19,1 C 19,1 C 5,2 C 63 % 69 % 100 % 1015,9 hPa 0,0 l/m 3,1 km/h (1 Bft) SO 135 5 min 0,0 UV-I 7,0 C 19,1 C 0,0 km/h (0 Bft)
28.09.2013 13:10 13,9 C 18,4 C 13,3 C 17,9 C 17,9 C 4,0 C 61 % 68 % 100 % 1015,6 hPa 0,0 l/m 2,7 km/h (1 Bft) O 90 5 min 0,0 UV-I 6,5 C 17,9 C 3,9 km/h (1 Bft)
28.09.2013 13:15 13,9 C 18,4 C 13,5 C 18,2 C 18,2 C 4,3 C 61 % 68 % 100 % 1015,6 hPa 0,0 l/m 2,7 km/h (1 Bft) NO 45 5 min 0,0 UV-I 6,5 C 18,2 C 3,1 km/h (1 Bft)
28.09.2013 13:20 14,1 C 18,4 C 13,5 C 19,7 C 19,7 C 5,6 C 62 % 68 % 100 % 1015,6 hPa 0,0 l/m 2,6 km/h (1 Bft) S-SW 202 5 min 0,0 UV-I 6,9 C 19,7 C 4,5 km/h (1 Bft)
28.09.2013 13:25 14,2 C 18,4 C 13,7 C 20,3 C 20,3 C 6,1 C 61 % 68 % 100 % 1015,6 hPa 0,0 l/m 2,6 km/h (1 Bft) O-NO 67 5 min 0,0 UV-I 6,8 C 20,3 C 2,6 km/h (1 Bft)
28.09.2013 13:30 14,2 C 18,4 C 13,6 C 20,4 C 20,4 C 6,2 C 61 % 68 % 100 % 1015,6 hPa 0,0 l/m 3,5 km/h (1 Bft) O-SO 112 5 min 0,0 UV-I 6,8 C 20,4 C 5,0 km/h (1 Bft)
28.09.2013 13:35 14,1 C 18,5 C 13,6 C 20,7 C 20,7 C 6,6 C 61 % 67 % 100 % 1015,6 hPa 0,0 l/m 2,7 km/h (1 Bft) O 90 5 min 0,0 UV-I 6,7 C 20,7 C 4,7 km/h (1 Bft)
28.09.2013 13:40 14,3 C 18,5 C 13,9 C 20,6 C 20,6 C 6,3 C 60 % 67 % 100 % 1015,6 hPa 0,0 l/m 3,2 km/h (1 Bft) O-NO 67 5 min 0,0 UV-I 6,6 C 20,6 C 3,2 km/h (1 Bft)
28.09.2013 13:45 14,2 C 18,5 C 13,7 C 20,5 C 20,5 C 6,3 C 60 % 67 % 100 % 1015,6 hPa 0,0 l/m 3,9 km/h (1 Bft) O-NO 67 5 min 0,0 UV-I 6,5 C 20,5 C 4,2 km/h (1 Bft)
28.09.2013 13:50 14,2 C 18,5 C 13,7 C 19,0 C 19,0 C 4,8 C 60 % 67 % 100 % 1015,4 hPa 0,0 l/m 2,6 km/h (1 Bft) O-SO 112 5 min 0,0 UV-I 6,5 C 19,0 C 6,4 km/h (2 Bft)
28.09.2013 13:55 14,2 C 18,5 C 13,9 C 18,9 C 18,9 C 4,7 C 59 % 66 % 100 % 1015,4 hPa 0,0 l/m 2,4 km/h (1 Bft) O-SO 112 5 min 0,0 UV-I 6,3 C 18,9 C 0,0 km/h (0 Bft)
28.09.2013 14:00 14,2 C 18,5 C 13,8 C 19,5 C 19,5 C 5,3 C 59 % 66 % 100 % 1015,4 hPa 0,0 l/m 3,2 km/h (1 Bft) NW 315 5 min 0,0 UV-I 6,3 C 19,5 C 0,0 km/h (0 Bft)
28.09.2013 14:05 14,2 C 18,5 C 13,9 C 20,0 C 20,0 C 5,8 C 60 % 66 % 100 % 1015,4 hPa 0,0 l/m 2,7 km/h (1 Bft) N-NW 337 5 min 0,0 UV-I 6,5 C 20,0 C 1,8 km/h (1 Bft)
28.09.2013 14:10 14,4 C 18,5 C 14,0 C 20,1 C 20,1 C 5,7 C 59 % 66 % 100 % 1015,1 hPa 0,0 l/m 3,1 km/h (1 Bft) O 90 5 min 0,0 UV-I 6,5 C 20,1 C 2,7 km/h (1 Bft)
28.09.2013 14:15 14,4 C 18,5 C 14,1 C 20,4 C 20,4 C 6,0 C 59 % 66 % 100 % 1015,1 hPa 0,0 l/m 2,6 km/h (1 Bft) N-NW 337 5 min 0,0 UV-I 6,5 C 20,4 C 4,0 km/h (1 Bft)
28.09.2013 14:20 14,6 C 18,5 C 14,3 C 20,4 C 20,4 C 5,8 C 59 % 65 % 100 % 1015,1 hPa 0,0 l/m 2,4 km/h (1 Bft) SO 135 5 min 0,0 UV-I 6,7 C 20,4 C 2,4 km/h (1 Bft)
28.09.2013 14:25 14,6 C 18,5 C 14,2 C 20,8 C 20,8 C 6,2 C 59 % 64 % 100 % 1015,1 hPa 0,0 l/m 2,6 km/h (1 Bft) O 90 5 min 0,0 UV-I 6,7 C 20,8 C 3,2 km/h (1 Bft)
28.09.2013 14:30 14,7 C 18,5 C 14,3 C 20,8 C 20,8 C 6,1 C 58 % 64 % 100 % 1015,1 hPa 0,0 l/m 3,1 km/h (1 Bft) O-NO 67 5 min 0,0 UV-I 6,5 C 20,8 C 3,1 km/h (1 Bft)
28.09.2013 14:35 14,7 C 18,5 C 14,4 C 20,9 C 20,9 C 6,2 C 59 % 64 % 100 % 1015,1 hPa 0,0 l/m 3,2 km/h (1 Bft) S 180 5 min 0,0 UV-I 6,8 C 20,9 C 1,9 km/h (1 Bft)
28.09.2013 14:40 14,7 C 18,5 C 14,3 C 21,0 C 21,0 C 6,3 C 58 % 63 % 100 % 1015,1 hPa 0,0 l/m 2,3 km/h (1 Bft) O-NO 67 5 min 0,0 UV-I 6,5 C 21,0 C 3,1 km/h (1 Bft)
28.09.2013 14:45 14,5 C 18,5 C 14,1 C 19,2 C 19,2 C 4,7 C 58 % 64 % 100 % 1015,1 hPa 0,0 l/m 3,4 km/h (1 Bft) O-NO 67 5 min 0,0 UV-I 6,3 C 19,2 C 3,2 km/h (1 Bft)
28.09.2013 14:50 14,7 C 18,6 C 14,2 C 18,2 C 18,2 C 3,5 C 59 % 65 % 92 % 1014,9 hPa 0,0 l/m 4,7 km/h (1 Bft) NO 45 5 min 0,0 UV-I 6,8 C 18,2 C 5,0 km/h (1 Bft)
28.09.2013 14:55 14,7 C 18,6 C 14,4 C 18,7 C 18,7 C 4,0 C 58 % 64 % 100 % 1014,9 hPa 0,0 l/m 4,5 km/h (1 Bft) NO 45 5 min 0,0 UV-I 6,5 C 18,7 C 5,3 km/h (1 Bft)
28.09.2013 15:00 14,8 C 18,6 C 14,5 C 19,7 C 19,7 C 4,9 C 58 % 64 % 100 % 1014,9 hPa 0,0 l/m 3,4 km/h (1 Bft) O-NO 67 5 min 0,0 UV-I 6,6 C 19,7 C 1,6 km/h (1 Bft)
28.09.2013 15:05 14,9 C 18,6 C 14,6 C 20,4 C 20,4 C 5,5 C 57 % 62 % 100 % 1014,9 hPa 0,0 l/m 2,7 km/h (1 Bft) O-SO 112 5 min 0,0 UV-I 6,5 C 20,4 C 2,3 km/h (1 Bft)
28.09.2013 15:10 14,8 C 18,6 C 14,8 C 20,5 C 20,5 C 5,7 C 58 % 63 % 100 % 1014,6 hPa 0,0 l/m 3,5 km/h (1 Bft) W-SW 247 5 min 0,0 UV-I 6,6 C 20,5 C 0,0 km/h (0 Bft)
28.09.2013 15:15 14,9 C 18,6 C 14,9 C 21,0 C 21,0 C 6,1 C 59 % 63 % 100 % 1014,6 hPa 0,0 l/m 2,9 km/h (1 Bft) NO 45 5 min 0,0 UV-I 7,0 C 21,0 C 0,0 km/h (0 Bft)
28.09.2013 15:20 14,9 C 18,6 C 14,9 C 21,1 C 21,1 C 6,2 C 56 % 61 % 100 % 1014,6 hPa 0,0 l/m 2,7 km/h (1 Bft) O-NO 67 5 min 0,0 UV-I 6,2 C 21,1 C 5,6 km/h (1 Bft)
28.09.2013 15:25 14,9 C 18,7 C 14,8 C 20,6 C 20,6 C 5,7 C 57 % 61 % 100 % 1014,6 hPa 0,0 l/m 3,9 km/h (1 Bft) NW 315 5 min 0,0 UV-I 6,5 C 20,6 C 2,6 km/h (1 Bft)
28.09.2013 15:30 14,8 C 18,7 C 14,6 C 19,8 C 19,8 C 5,0 C 57 % 63 % 100 % 1014,4 hPa 0,0 l/m 2,7 km/h (1 Bft) S-SO 157 5 min 0,0 UV-I 6,4 C 19,8 C 2,6 km/h (1 Bft)
28.09.2013 15:35 14,8 C 18,7 C 14,6 C 19,1 C 19,1 C 4,3 C 57 % 62 % 100 % 1014,4 hPa 0,0 l/m 1,3 km/h (1 Bft) O 90 5 min 0,0 UV-I 6,4 C 19,1 C 0,0 km/h (0 Bft)
28.09.2013 15:40 14,9 C 18,7 C 14,8 C 20,3 C 20,3 C 5,4 C 58 % 63 % 100 % 1014,4 hPa 0,0 l/m 1,0 km/h (0 Bft) O-SO 112 5 min 0,0 UV-I 6,7 C 20,3 C 0,0 km/h (0 Bft)
28.09.2013 15:45 15,1 C 18,7 C 15,0 C 20,8 C 20,8 C 5,7 C 56 % 62 % 100 % 1014,4 hPa 0,0 l/m 1,9 km/h (1 Bft) NW 315 5 min 0,0 UV-I 6,4 C 20,8 C 4,7 km/h (1 Bft)
28.09.2013 15:50 15,1 C 18,7 C 14,9 C 20,6 C 20,6 C 5,5 C 56 % 61 % 100 % 1014,3 hPa 0,0 l/m 3,9 km/h (1 Bft) O 90 5 min 0,0 UV-I 6,4 C 20,6 C 10,1 km/h (2 Bft)
28.09.2013 15:55 14,9 C 18,7 C 14,8 C 20,0 C 20,0 C 5,1 C 56 % 61 % 100 % 1014,3 hPa 0,0 l/m 4,8 km/h (1 Bft) O-SO 112 5 min 0,0 UV-I 6,2 C 20,0 C 2,7 km/h (1 Bft)
28.09.2013 16:00 15,0 C 18,7 C 14,9 C 19,6 C 19,6 C 4,6 C 58 % 62 % 100 % 1014,3 hPa 0,0 l/m 5,3 km/h (1 Bft) O-NO 67 5 min 0,0 UV-I 6,8 C 19,6 C 3,1 km/h (1 Bft)
28.09.2013 16:05 15,1 C 18,8 C 14,9 C 19,8 C 19,8 C 4,7 C 58 % 63 % 100 % 1014,3 hPa 0,0 l/m 3,7 km/h (1 Bft) O-SO 112 5 min 0,0 UV-I 6,9 C 19,8 C 2,3 km/h (1 Bft)
28.09.2013 16:10 15,1 C 18,8 C 14,9 C 20,0 C 20,0 C 4,9 C 57 % 62 % 100 % 1014,2 hPa 0,0 l/m 3,1 km/h (1 Bft) O-SO 112 5 min 0,0 UV-I 6,6 C 20,0 C 4,0 km/h (1 Bft)
28.09.2013 16:15 15,1 C 18,8 C 14,7 C 19,7 C 19,7 C 4,6 C 58 % 62 % 100 % 1014,2 hPa 0,0 l/m 3,5 km/h (1 Bft) O-NO 67 5 min 0,0 UV-I 6,9 C 19,7 C 5,6 km/h (1 Bft)
28.09.2013 16:20 14,8 C 18,8 C 14,5 C 18,0 C 18,0 C 3,2 C 58 % 64 % 84 % 1014,2 hPa 0,0 l/m 4,2 km/h (1 Bft) N-NO 22 0 min 0,0 UV-I 6,6 C 18,0 C 1,9 km/h (1 Bft)
28.09.2013 16:25 14,8 C 18,8 C 14,6 C 18,5 C 18,5 C 3,7 C 59 % 64 % 97 % 1014,2 hPa 0,0 l/m 3,5 km/h (1 Bft) O-SO 112 5 min 0,0 UV-I 6,9 C 18,5 C 2,7 km/h (1 Bft)
28.09.2013 16:30 14,9 C 18,8 C 14,6 C 18,7 C 18,7 C 3,8 C 59 % 63 % 100 % 1013,8 hPa 0,0 l/m 3,2 km/h (1 Bft) S 180 5 min 0,0 UV-I 7,0 C 18,7 C 1,9 km/h (1 Bft)
28.09.2013 16:35 14,7 C 18,8 C 14,7 C 19,1 C 19,1 C 4,4 C 59 % 63 % 100 % 1013,8 hPa 0,0 l/m 2,7 km/h (1 Bft) SW 225 5 min 0,0 UV-I 6,8 C 19,1 C 2,1 km/h (1 Bft)
28.09.2013 16:40 14,6 C 18,8 C 14,7 C 19,1 C 19,1 C 4,5 C 59 % 63 % 100 % 1013,8 hPa 0,0 l/m 2,6 km/h (1 Bft) O-NO 67 5 min 0,0 UV-I 6,7 C 19,1 C 5,3 km/h (1 Bft)
28.09.2013 16:45 14,7 C 18,8 C 14,6 C 18,7 C 18,7 C 4,0 C 59 % 64 % 100 % 1013,8 hPa 0,0 l/m 3,4 km/h (1 Bft) O-NO 67 5 min 0,0 UV-I 6,8 C 18,7 C 4,0 km/h (1 Bft)
28.09.2013 16:50 14,6 C 18,9 C 14,7 C 18,4 C 18,4 C 3,8 C 59 % 63 % 100 % 1014,2 hPa 0,0 l/m 4,7 km/h (1 Bft) O 90 5 min 0,0 UV-I 6,7 C 18,4 C 4,8 km/h (1 Bft)
28.09.2013 16:55 14,5 C 18,9 C 14,5 C 18,5 C 18,5 C 4,0 C 60 % 64 % 100 % 1014,2 hPa 0,0 l/m 4,2 km/h (1 Bft) O 90 5 min 0,0 UV-I 6,8 C 18,5 C 5,5 km/h (1 Bft)
28.09.2013 17:00 14,5 C 18,9 C 14,5 C 18,5 C 18,5 C 4,0 C 60 % 64 % 100 % 1014,2 hPa 0,0 l/m 3,4 km/h (1 Bft) O-NO 67 5 min 0,0 UV-I 6,8 C 18,5 C 8,2 km/h (2 Bft)
28.09.2013 17:05 14,5 C 18,9 C 14,5 C 18,4 C 18,4 C 3,9 C 60 % 64 % 100 % 1014,2 hPa 0,0 l/m 3,7 km/h (1 Bft) S-SW 202 5 min 0,0 UV-I 6,8 C 18,4 C 0,0 km/h (0 Bft)
28.09.2013 17:10 14,4 C 18,9 C 14,5 C 18,5 C 18,5 C 4,1 C 59 % 64 % 100 % 1014,3 hPa 0,0 l/m 3,4 km/h (1 Bft) O 90 5 min 0,0 UV-I 6,5 C 18,5 C 7,1 km/h (2 Bft)
28.09.2013 17:15 14,5 C 18,9 C 14,4 C 18,3 C 18,3 C 3,8 C 59 % 64 % 100 % 1014,3 hPa 0,0 l/m 3,4 km/h (1 Bft) O-NO 67 5 min 0,0 UV-I 6,6 C 18,3 C 5,1 km/h (1 Bft)
28.09.2013 17:20 14,4 C 18,9 C 14,3 C 18,1 C 18,1 C 3,7 C 60 % 64 % 97 % 1014,3 hPa 0,0 l/m 3,5 km/h (1 Bft) SO 135 5 min 0,0 UV-I 6,7 C 18,1 C 5,8 km/h (2 Bft)
28.09.2013 17:25 14,3 C 18,9 C 14,5 C 18,1 C 18,1 C 3,8 C 60 % 64 % 100 % 1014,3 hPa 0,0 l/m 3,1 km/h (1 Bft) O-NO 67 5 min 0,0 UV-I 6,6 C 18,1 C 3,2 km/h (1 Bft)
28.09.2013 17:30 14,2 C 18,9 C 14,4 C 17,8 C 17,8 C 3,6 C 60 % 64 % 95 % 1014,2 hPa 0,0 l/m 4,2 km/h (1 Bft) O-NO 67 5 min 0,0 UV-I 6,5 C 17,8 C 3,9 km/h (1 Bft)
28.09.2013 17:35 14,3 C 19,0 C 14,5 C 17,6 C 17,6 C 3,3 C 60 % 64 % 87 % 1014,2 hPa 0,0 l/m 4,2 km/h (1 Bft) O 90 5 min 0,0 UV-I 6,6 C 17,6 C 6,0 km/h (2 Bft)
28.09.2013 17:40 14,2 C 19,0 C 14,3 C 17,3 C 17,3 C 3,1 C 60 % 64 % 82 % 1014,2 hPa 0,0 l/m 4,0 km/h (1 Bft) O-SO 112 5 min 0,0 UV-I 6,5 C 17,3 C 4,2 km/h (1 Bft)
28.09.2013 17:45 14,1 C 19,0 C 14,3 C 17,0 C 17,0 C 2,9 C 60 % 64 % 76 % 1014,2 hPa 0,0 l/m 3,7 km/h (1 Bft) O-NO 67 5 min 0,0 UV-I 6,5 C 17,0 C 2,4 km/h (1 Bft)
28.09.2013 17:50 14,0 C 19,0 C 14,0 C 16,3 C 16,3 C 2,3 C 60 % 64 % 61 % 1013,7 hPa 0,0 l/m 3,9 km/h (1 Bft) O-NO 67 5 min 0,0 UV-I 6,4 C 16,3 C 3,1 km/h (1 Bft)
28.09.2013 17:55 14,0 C 19,0 C 13,9 C 16,3 C 16,3 C 2,3 C 60 % 63 % 61 % 1013,7 hPa 0,0 l/m 4,3 km/h (1 Bft) O-NO 67 5 min 0,0 UV-I 6,4 C 16,3 C 5,0 km/h (1 Bft)
28.09.2013 18:00 13,9 C 19,0 C 13,7 C 16,1 C 16,1 C 2,2 C 60 % 64 % 58 % 1013,7 hPa 0,0 l/m 3,7 km/h (1 Bft) O-NO 67 5 min 0,0 UV-I 6,3 C 16,1 C 4,8 km/h (1 Bft)
28.09.2013 18:05 13,8 C 19,0 C 13,7 C 16,0 C 16,0 C 2,2 C 61 % 65 % 58 % 1013,7 hPa 0,0 l/m 3,4 km/h (1 Bft) O-NO 67 5 min 0,0 UV-I 6,4 C 16,0 C 4,8 km/h (1 Bft)
28.09.2013 18:10 13,7 C 19,0 C 13,5 C 15,4 C 15,4 C 1,7 C 61 % 65 % 45 % 1014,0 hPa 0,0 l/m 3,2 km/h (1 Bft) O 90 5 min 0,0 UV-I 6,3 C 15,4 C 2,6 km/h (1 Bft)
28.09.2013 18:15 13,6 C 19,0 C 13,4 C 15,2 C 15,2 C 1,6 C 62 % 66 % 42 % 1014,0 hPa 0,0 l/m 3,1 km/h (1 Bft) O-NO 67 5 min 0,0 UV-I 6,5 C 15,2 C 2,6 km/h (1 Bft)
28.09.2013 18:20 13,5 C 19,0 C 13,2 C 14,9 C 14,9 C 1,4 C 62 % 66 % 37 % 1014,0 hPa 0,0 l/m 2,3 km/h (1 Bft) O 90 5 min 0,0 UV-I 6,4 C 14,9 C 3,7 km/h (1 Bft)
28.09.2013 18:25 13,4 C 19,0 C 13,0 C 14,6 C 14,6 C 1,2 C 62 % 67 % 32 % 1014,0 hPa 0,0 l/m 1,9 km/h (1 Bft) O-SO 112 5 min 0,0 UV-I 6,3 C 14,6 C 2,3 km/h (1 Bft)
28.09.2013 18:30 13,2 C 19,1 C 12,9 C 14,4 C 14,4 C 1,2 C 63 % 67 % 32 % 1014,2 hPa 0,0 l/m 2,6 km/h (1 Bft) O-NO 67 5 min 0,0 UV-I 6,3 C 14,4 C 3,5 km/h (1 Bft)
28.09.2013 18:35 13,2 C 19,2 C 12,8 C 14,0 C 14,0 C 0,8 C 63 % 68 % 21 % 1014,2 hPa 0,0 l/m 2,9 km/h (1 Bft) O-NO 67 5 min 0,0 UV-I 6,3 C 14,0 C 3,4 km/h (1 Bft)
28.09.2013 18:41 13,1 C 19,2 C 12,7 C 13,7 C 13,7 C 0,6 C 63 % 68 % 16 % 1014,2 hPa 0,0 l/m 3,2 km/h (1 Bft) N 0 6 min 0,0 UV-I 6,2 C 13,7 C 2,7 km/h (1 Bft)
28.09.2013 18:58 12,3 C 19,2 C 11,7 C 12,1 C 11,7 C 0,0 C 65 % 70 % 0 % 1014,8 hPa 0,0 l/m 2,9 km/h (1 Bft) O-NO 67 0 min 0,0 UV-I 5,9 C 11,7 C 3,4 km/h (1 Bft)
28.09.2013 19:00 12,3 C 19,2 C 11,7 C 12,1 C 11,7 C 0,0 C 65 % 70 % 0 % 1014,8 hPa 0,0 l/m 2,9 km/h (1 Bft) O-NO 67 0 min 0,0 UV-I 5,9 C 11,7 C 3,4 km/h (1 Bft)
28.09.2013 19:05 12,3 C 19,2 C 11,6 C 12,0 C 11,4 C 0,0 C 65 % 70 % 0 % 1014,8 hPa 0,0 l/m 2,9 km/h (1 Bft) O-NO 67 0 min 0,0 UV-I 5,9 C 11,4 C 2,6 km/h (1 Bft)
28.09.2013 19:10 11,9 C 19,2 C 11,2 C 11,6 C 11,0 C 0,0 C 66 % 71 % 0 % 1014,0 hPa 0,0 l/m 2,1 km/h (1 Bft) O-NO 67 0 min 0,0 UV-I 5,8 C 11,0 C 1,6 km/h (1 Bft)
28.09.2013 19:15 11,7 C 19,2 C 11,0 C 11,3 C 10,6 C 0,0 C 67 % 71 % 0 % 1014,0 hPa 0,0 l/m 1,0 km/h (0 Bft) NO 45 0 min 0,0 UV-I 5,8 C 10,6 C 0,0 km/h (0 Bft)
28.09.2013 19:20 11,5 C 19,2 C 10,5 C 11,1 C 10,3 C 0,0 C 68 % 72 % 0 % 1014,0 hPa 0,0 l/m 0,2 km/h (0 Bft) O-NO 67 0 min 0,0 UV-I 5,8 C 10,3 C 0,0 km/h (0 Bft)
28.09.2013 19:25 11,2 C 19,2 C 10,4 C 10,8 C 10,0 C 0,0 C 68 % 73 % 0 % 1014,0 hPa 0,0 l/m 0,0 km/h (0 Bft) NO 45 0 min 0,0 UV-I 5,5 C 10,0 C 0,0 km/h (0 Bft)
28.09.2013 19:30 10,9 C 19,2 C 10,1 C 10,4 C 9,5 C 0,0 C 70 % 74 % 0 % 1014,6 hPa 0,0 l/m 0,0 km/h (0 Bft) NO 45 0 min 0,0 UV-I 5,6 C 9,5 C 0,0 km/h (0 Bft)
28.09.2013 19:35 10,8 C 19,2 C 9,9 C 10,3 C 9,2 C 0,0 C 70 % 74 % 0 % 1014,6 hPa 0,0 l/m 0,0 km/h (0 Bft) NO 45 0 min 0,0 UV-I 5,6 C 9,2 C 0,0 km/h (0 Bft)
28.09.2013 19:40 10,5 C 19,2 C 9,8 C 10,0 C 8,9 C 0,0 C 71 % 75 % 0 % 1014,6 hPa 0,0 l/m 0,0 km/h (0 Bft) O-NO 67 0 min 0,0 UV-I 5,5 C 8,9 C 0,0 km/h (0 Bft)
28.09.2013 19:45 10,3 C 19,2 C 9,7 C 9,8 C 8,7 C 0,0 C 72 % 76 % 0 % 1014,6 hPa 0,0 l/m 0,0 km/h (0 Bft) NO 45 0 min 0,0 UV-I 5,5 C 8,7 C 0,0 km/h (0 Bft)
28.09.2013 19:50 10,1 C 19,3 C 9,5 C 9,6 C 8,5 C 0,0 C 72 % 76 % 0 % 1014,8 hPa 0,0 l/m 0,0 km/h (0 Bft) NO 45 0 min 0,0 UV-I 5,3 C 8,5 C 0,0 km/h (0 Bft)
28.09.2013 19:55 9,9 C 19,3 C 9,3 C 9,4 C 8,4 C 0,0 C 73 % 76 % 0 % 1014,8 hPa 0,0 l/m 0,0 km/h (0 Bft) N-NO 22 0 min 0,0 UV-I 5,3 C 8,4 C 0,0 km/h (0 Bft)
28.09.2013 20:00 9,6 C 19,3 C 9,2 C 9,1 C 8,2 C 0,0 C 74 % 77 % 0 % 1014,8 hPa 0,0 l/m 0,0 km/h (0 Bft) NO 45 0 min 0,0 UV-I 5,2 C 8,2 C 0,0 km/h (0 Bft)
28.09.2013 20:05 9,5 C 19,3 C 9,1 C 9,0 C 8,1 C 0,0 C 74 % 78 % 0 % 1014,8 hPa 0,0 l/m 0,0 km/h (0 Bft) O-SO 112 0 min 0,0 UV-I 5,1 C 8,1 C 0,0 km/h (0 Bft)
28.09.2013 20:10 9,3 C 19,3 C 9,0 C 8,8 C 7,9 C 0,0 C 75 % 78 % 0 % 1014,7 hPa 0,0 l/m 0,0 km/h (0 Bft) N-NW 337 0 min 0,0 UV-I 5,1 C 7,9 C 0,0 km/h (0 Bft)
28.09.2013 20:15 9,2 C 19,3 C 9,0 C 8,7 C 7,8 C 0,0 C 75 % 78 % 0 % 1014,7 hPa 0,0 l/m 0,0 km/h (0 Bft) N-NW 337 0 min 0,0 UV-I 5,0 C 7,8 C 0,0 km/h (0 Bft)
28.09.2013 20:20 9,1 C 19,3 C 8,8 C 8,6 C 7,6 C 0,0 C 76 % 78 % 0 % 1014,7 hPa 0,0 l/m 0,0 km/h (0 Bft) NO 45 0 min 0,0 UV-I 5,1 C 7,6 C 0,0 km/h (0 Bft)
28.09.2013 20:25 9,1 C 19,3 C 8,7 C 8,6 C 7,6 C 0,0 C 76 % 79 % 0 % 1014,7 hPa 0,0 l/m 0,0 km/h (0 Bft) N-NO 22 0 min 0,0 UV-I 5,1 C 7,6 C 0,0 km/h (0 Bft)
28.09.2013 20:30 8,8 C 19,3 C 8,7 C 8,4 C 7,5 C 0,0 C 76 % 79 % 0 % 1015,0 hPa 0,0 l/m 0,0 km/h (0 Bft) N-NO 22 0 min 0,0 UV-I 4,8 C 7,5 C 0,0 km/h (0 Bft)
28.09.2013 20:35 8,8 C 19,3 C 8,5 C 8,3 C 7,3 C 0,0 C 77 % 79 % 0 % 1015,0 hPa 0,0 l/m 0,0 km/h (0 Bft) N-NO 22 0 min 0,0 UV-I 5,0 C 7,3 C 0,0 km/h (0 Bft)
28.09.2013 20:40 8,7 C 19,4 C 8,4 C 8,2 C 7,1 C 0,0 C 77 % 79 % 0 % 1015,0 hPa 0,0 l/m 0,0 km/h (0 Bft) N 360 0 min 0,0 UV-I 4,9 C 7,1 C 0,0 km/h (0 Bft)
28.09.2013 20:45 8,6 C 19,4 C 8,4 C 8,0 C 6,9 C 0,0 C 77 % 80 % 0 % 1015,0 hPa 0,0 l/m 0,0 km/h (0 Bft) N-NO 22 0 min 0,0 UV-I 4,8 C 6,9 C 0,0 km/h (0 Bft)
28.09.2013 20:50 8,4 C 19,4 C 8,4 C 7,9 C 6,9 C 0,0 C 78 % 80 % 0 % 1014,9 hPa 0,0 l/m 0,0 km/h (0 Bft) NO 45 0 min 0,0 UV-I 4,8 C 6,9 C 0,0 km/h (0 Bft)
28.09.2013 20:55 8,4 C 19,4 C 8,4 C 7,9 C 6,9 C 0,0 C 78 % 80 % 0 % 1014,9 hPa 0,0 l/m 0,0 km/h (0 Bft) N-NW 337 0 min 0,0 UV-I 4,8 C 6,9 C 0,0 km/h (0 Bft)
28.09.2013 21:00 8,3 C 19,4 C 8,3 C 7,7 C 6,6 C 0,0 C 78 % 80 % 0 % 1014,9 hPa 0,0 l/m 0,0 km/h (0 Bft) O-NO 67 0 min 0,0 UV-I 4,7 C 6,6 C 0,0 km/h (0 Bft)
28.09.2013 21:05 8,1 C 19,4 C 8,1 C 7,6 C 6,6 C 0,0 C 79 % 80 % 0 % 1014,9 hPa 0,0 l/m 0,0 km/h (0 Bft) N 360 0 min 0,0 UV-I 4,7 C 6,6 C 0,0 km/h (0 Bft)
28.09.2013 21:10 7,9 C 19,4 C 8,0 C 7,4 C 6,4 C 0,0 C 79 % 81 % 0 % 1015,0 hPa 0,0 l/m 0,0 km/h (0 Bft) N-NO 22 0 min 0,0 UV-I 4,5 C 6,4 C 0,0 km/h (0 Bft)
28.09.2013 21:15 7,9 C 19,4 C 7,9 C 7,4 C 6,3 C 0,0 C 80 % 81 % 0 % 1015,0 hPa 0,0 l/m 0,0 km/h (0 Bft) N-NO 22 0 min 0,0 UV-I 4,7 C 6,3 C 0,0 km/h (0 Bft)
28.09.2013 21:20 7,6 C 19,4 C 7,7 C 7,1 C 6,2 C 0,0 C 80 % 81 % 0 % 1015,0 hPa 0,0 l/m 0,0 km/h (0 Bft) NO 45 0 min 0,0 UV-I 4,4 C 6,2 C 0,0 km/h (0 Bft)
28.09.2013 21:25 7,5 C 19,4 C 7,6 C 7,0 C 6,1 C 0,0 C 80 % 81 % 0 % 1015,0 hPa 0,0 l/m 0,0 km/h (0 Bft) N-NW 337 0 min 0,0 UV-I 4,3 C 6,1 C 0,0 km/h (0 Bft)
28.09.2013 21:30 7,4 C 19,4 C 7,6 C 6,9 C 6,0 C 0,0 C 81 % 82 % 0 % 1015,1 hPa 0,0 l/m 0,0 km/h (0 Bft) NW 315 0 min 0,0 UV-I 4,4 C 6,0 C 0,0 km/h (0 Bft)
28.09.2013 21:35 7,3 C 19,4 C 7,6 C 6,8 C 5,9 C 0,0 C 81 % 82 % 0 % 1015,1 hPa 0,0 l/m 0,0 km/h (0 Bft) N-NW 337 0 min 0,0 UV-I 4,3 C 5,9 C 0,0 km/h (0 Bft)
28.09.2013 21:40 7,2 C 19,4 C 7,7 C 6,8 C 6,0 C 0,0 C 82 % 82 % 0 % 1015,1 hPa 0,0 l/m 0,0 km/h (0 Bft) N-NW 337 0 min 0,0 UV-I 4,3 C 6,0 C 0,0 km/h (0 Bft)
28.09.2013 21:45 7,2 C 19,4 C 7,6 C 6,8 C 6,0 C 0,0 C 82 % 82 % 0 % 1015,1 hPa 0,0 l/m 0,0 km/h (0 Bft) W-SW 247 0 min 0,0 UV-I 4,3 C 6,0 C 0,0 km/h (0 Bft)
28.09.2013 21:50 7,0 C 19,4 C 7,5 C 6,6 C 5,7 C 0,0 C 82 % 82 % 0 % 1015,2 hPa 0,0 l/m 0,0 km/h (0 Bft) NW 315 0 min 0,0 UV-I 4,1 C 5,7 C 0,0 km/h (0 Bft)
28.09.2013 21:55 7,0 C 19,4 C 7,2 C 6,5 C 5,6 C 0,0 C 82 % 82 % 0 % 1015,2 hPa 0,0 l/m 0,0 km/h (0 Bft) N-NW 337 0 min 0,0 UV-I 4,1 C 5,6 C 0,0 km/h (0 Bft)
28.09.2013 22:00 6,8 C 19,4 C 7,2 C 6,5 C 5,9 C 0,0 C 83 % 83 % 0 % 1015,2 hPa 0,0 l/m 0,0 km/h (0 Bft) N-NW 337 0 min 0,0 UV-I 4,1 C 5,9 C 0,0 km/h (0 Bft)
28.09.2013 22:05 6,8 C 19,4 C 7,3 C 6,5 C 5,9 C 0,0 C 83 % 83 % 0 % 1015,2 hPa 0,0 l/m 0,0 km/h (0 Bft) N-NW 337 0 min 0,0 UV-I 4,1 C 5,9 C 0,0 km/h (0 Bft)
28.09.2013 22:10 6,7 C 19,4 C 7,2 C 6,5 C 6,1 C 0,0 C 83 % 83 % 0 % 1015,2 hPa 0,0 l/m 0,0 km/h (0 Bft) NW 315 0 min 0,0 UV-I 4,0 C 6,1 C 0,0 km/h (0 Bft)
28.09.2013 22:15 6,7 C 19,4 C 7,2 C 6,5 C 6,0 C 0,0 C 83 % 83 % 0 % 1015,2 hPa 0,0 l/m 0,0 km/h (0 Bft) NO 45 0 min 0,0 UV-I 4,0 C 6,0 C 0,0 km/h (0 Bft)
28.09.2013 22:20 6,5 C 19,4 C 7,1 C 6,3 C 5,9 C 0,0 C 83 % 83 % 0 % 1015,2 hPa 0,0 l/m 0,0 km/h (0 Bft) N-NO 22 0 min 0,0 UV-I 3,8 C 5,9 C 0,0 km/h (0 Bft)
28.09.2013 22:25 6,5 C 19,4 C 6,9 C 6,3 C 5,9 C 0,0 C 83 % 83 % 0 % 1015,2 hPa 0,0 l/m 0,0 km/h (0 Bft) N-NW 337 0 min 0,0 UV-I 3,8 C 5,9 C 0,0 km/h (0 Bft)
28.09.2013 22:30 6,4 C 19,4 C 7,0 C 6,3 C 6,0 C 0,0 C 84 % 83 % 0 % 1015,1 hPa 0,0 l/m 0,0 km/h (0 Bft) N-NO 22 0 min 0,0 UV-I 3,9 C 6,0 C 0,0 km/h (0 Bft)
28.09.2013 22:35 6,3 C 19,4 C 6,9 C 6,2 C 6,0 C 0,0 C 84 % 83 % 0 % 1015,1 hPa 0,0 l/m 0,0 km/h (0 Bft) N-NW 337 0 min 0,0 UV-I 3,8 C 6,0 C 0,0 km/h (0 Bft)
28.09.2013 22:40 6,3 C 19,4 C 6,9 C 6,2 C 5,9 C 0,0 C 84 % 83 % 0 % 1015,1 hPa 0,0 l/m 0,0 km/h (0 Bft) O-SO 112 0 min 0,0 UV-I 3,8 C 5,9 C 0,0 km/h (0 Bft)
28.09.2013 22:45 6,3 C 19,4 C 6,9 C 6,1 C 5,7 C 0,0 C 84 % 83 % 0 % 1015,1 hPa 0,0 l/m 0,0 km/h (0 Bft) SW 225 0 min 0,0 UV-I 3,8 C 5,7 C 0,0 km/h (0 Bft)
28.09.2013 22:50 6,0 C 19,4 C 6,9 C 5,8 C 5,5 C 0,0 C 84 % 83 % 0 % 1015,2 hPa 0,0 l/m 0,0 km/h (0 Bft) NW 315 0 min 0,0 UV-I 3,5 C 5,5 C 0,0 km/h (0 Bft)
28.09.2013 22:55 6,0 C 19,4 C 6,8 C 5,8 C 5,5 C 0,0 C 84 % 83 % 0 % 1015,2 hPa 0,0 l/m 0,2 km/h (0 Bft) N-NW 337 0 min 0,0 UV-I 3,5 C 5,5 C 1,6 km/h (1 Bft)
28.09.2013 23:00 5,9 C 19,4 C 6,6 C 5,8 C 5,6 C 0,0 C 85 % 83 % 0 % 1015,2 hPa 0,0 l/m 0,3 km/h (0 Bft) W 270 0 min 0,0 UV-I 3,6 C 5,6 C 0,0 km/h (0 Bft)
28.09.2013 23:05 5,9 C 19,4 C 6,7 C 5,8 C 5,5 C 0,0 C 85 % 83 % 0 % 1015,2 hPa 0,0 l/m 0,2 km/h (0 Bft) SO 135 0 min 0,0 UV-I 3,6 C 5,5 C 0,0 km/h (0 Bft)
28.09.2013 23:10 5,7 C 19,4 C 6,5 C 5,6 C 5,3 C 0,0 C 85 % 83 % 0 % 1014,8 hPa 0,0 l/m 0,0 km/h (0 Bft) NW 315 0 min 0,0 UV-I 3,4 C 5,3 C 0,0 km/h (0 Bft)
28.09.2013 23:15 5,6 C 19,4 C 6,5 C 5,5 C 5,2 C 0,0 C 85 % 83 % 0 % 1014,8 hPa 0,0 l/m 0,0 km/h (0 Bft) N-NO 22 0 min 0,0 UV-I 3,3 C 5,2 C 0,0 km/h (0 Bft)
28.09.2013 23:20 5,6 C 19,4 C 6,4 C 5,5 C 5,2 C 0,0 C 85 % 83 % 0 % 1014,8 hPa 0,0 l/m 0,0 km/h (0 Bft) N-NO 22 0 min 0,0 UV-I 3,3 C 5,2 C 0,0 km/h (0 Bft)
28.09.2013 23:25 5,5 C 19,5 C 6,3 C 5,4 C 5,3 C 0,0 C 85 % 83 % 0 % 1014,8 hPa 0,0 l/m 0,0 km/h (0 Bft) NO 45 0 min 0,0 UV-I 3,2 C 5,3 C 0,0 km/h (0 Bft)
28.09.2013 23:30 5,5 C 19,5 C 6,2 C 5,4 C 5,2 C 0,0 C 85 % 83 % 0 % 1015,1 hPa 0,0 l/m 0,0 km/h (0 Bft) NO 45 0 min 0,0 UV-I 3,2 C 5,2 C 0,0 km/h (0 Bft)
28.09.2013 23:35 5,3 C 19,4 C 6,1 C 5,3 C 5,2 C 0,0 C 85 % 84 % 0 % 1015,1 hPa 0,0 l/m 0,0 km/h (0 Bft) SW 225 0 min 0,0 UV-I 3,0 C 5,2 C 0,0 km/h (0 Bft)
28.09.2013 23:40 5,2 C 19,4 C 6,0 C 5,1 C 4,9 C 0,0 C 85 % 84 % 0 % 1015,1 hPa 0,0 l/m 0,0 km/h (0 Bft) N-NO 22 0 min 0,0 UV-I 2,9 C 4,9 C 0,0 km/h (0 Bft)
28.09.2013 23:45 5,2 C 19,4 C 6,0 C 5,1 C 4,8 C 0,0 C 85 % 84 % 0 % 1015,1 hPa 0,0 l/m 0,0 km/h (0 Bft) N-NO 22 0 min 0,0 UV-I 2,9 C 4,8 C 0,0 km/h (0 Bft)
28.09.2013 23:50 5,1 C 19,5 C 6,0 C 5,0 C 4,7 C 0,0 C 86 % 84 % 0 % 1015,1 hPa 0,0 l/m 0,0 km/h (0 Bft) N-NO 22 0 min 0,0 UV-I 3,0 C 4,7 C 0,0 km/h (0 Bft)
28.09.2013 23:55 5,1 C 19,5 C 6,0 C 4,9 C 4,5 C 0,0 C 86 % 84 % 0 % 1015,1 hPa 0,0 l/m 0,0 km/h (0 Bft) W 270 0 min 0,0 UV-I 3,0 C 4,5 C 0,0 km/h (0 Bft)
_ Min-Zeit 06:05 12:05 06:58 06:05 06:20 00:00 15:20 15:20 00:00 17:50 - 00:00 - - - 00:00 06:05 06:20 00:00
Minimum _ -0,5 C 18,2 C 1,6 C -0,6 C -0,8 C 0,0 C 56 % 61 % 0 % 1013,7 hPa - 0,0 km/h (0 Bft) - - - 0,0 UV-I -2,1 C -0,8 C 0,0 km/h (0 Bft)
_ Max-Zeit 15:45 00:00 15:45 15:20 15:20 08:10 10:50 05:10 07:50 02:10 00:00 11:55 - - 13:00 00:00 11:10 15:20 11:50
Maximum _ 15,1 C 19,8 C 15,0 C 21,1 C 21,1 C 6,8 C 93 % 86 % 100 % 1017,5 hPa 0,0 l/m 6,6 km/h
O-SO (2 Bft)
- - 19 min 0,0 UV-I 7,2 C 21,1 C 11,1 km/h
O-SO (2 Bft)
Durchschnitt _ 6,9 C 19,0 C 7,7 C 8,4 C 8,2 C 1,6 C 78 % 78 % 35 % 1015,7 hPa #0,0 l/m 1,2 km/h (1 Bft) O-NO - #7:21 h 0,0 UV-I 3,0 C 8,2 C 1,5 km/h (1 Bft)
2013 www.wetterstation-wechselburg.de